Regional Weather Roundup
Issued by NWS

Home | Current Version | Previous Version | Graphics & Text | Print | Product List | Glossary On
Versions: 1 2 3 4 5 6 7 8 9 10 11 12 13 14 15 16 17 18 19 20 21 22 23 24 25 26 27 28 29 30 31 32 33 34 35 36 37 38 39 40 41 42 43 44 45 46 47 48 49 50
000
ASUS45 KABQ 281201
RWRNM
WEATHER ROUNDUP FOR NEW MEXICO
NATIONAL WEATHER SERVICE ALBUQUERQUE NM
600 AM MDT MON JUL 28 2014

NOTE: "FAIR" MEANS FEW OR NO CLOUDS BELOW 12,000 FEET AGL WITH NO
       SIGNIFICANT WEATHER OR OBSTRUCTIONS TO VISION.

      THIS PRODUCT IS RELEASED AS TWO VERSIONS.  ONE VERSION NEAR
      THE TOP OF THE HOUR CONTAINING PRELIMINARY DATA FROM ALBUQUERQUE
      AND OTHER STATIONS.  A FINAL VERSION WITH ADDITIONAL DATA IS
      ISSUED ABOUT 10 MINUTES AFTER THE HOUR.

NMZ501-503-504-510>518-281300-
NORTHWEST PLATEAU/NORTHCENTRAL MOUNTAINS

CITY           SKY/WX    TMP DP  RH WIND       PRES   REMARKS
FARMINGTON     CLOUDY    66  57  72 NE6       30.35S
6HR MIN TEMP:  65; 6HR MAX TEMP:  66; 6HR PCP: TRACE;

LOS ALAMOS     MOCLDY    59  50  72 N3        30.51R
SANTA FE       MOCLDY    60  56  86 NE8       30.44R
6HR MIN TEMP:  59; 6HR MAX TEMP:  64;

TAOS             N/A     55  52  88 CALM      30.51S
ANGEL FIRE     FAIR      50  49  96 CALM      30.60S

$$
NMZ402-403-502-505>509-281300-
WESTCENTRAL MOUNTAINS/SOUTHWEST MOUNTAINS

CITY           SKY/WX    TMP DP  RH WIND       PRES   REMARKS
GALLUP         CLOUDY    58  54  86 E3        30.43R
6HR MIN TEMP:  56; 6HR MAX TEMP:  63;


$$
NMZ407-409-411-412-281300-
SOUTHERN DESERTS

CITY           SKY/WX    TMP DP  RH WIND       PRES   REMARKS
LORDSBURG      CLOUDY    68  61  77 CALM      30.22F
DEMING         CLOUDY    71  62  73 NE5       30.25F
6HR MIN TEMP:  70; 6HR MAX TEMP:  78; 6HR PCP: TRACE;

LAS CRUCES     CLOUDY    71  62  71 NW5       30.28R
HOLLOMAN AFB   LGT RAIN  69  65  88 NE6       30.24R
T OR C         MOCLDY    69  60  73 SE3       30.29R
6HR MIN TEMP:  69; 6HR MAX TEMP:  81; 6HR PCP:  0.02;


$$
NMZ519>523-281300-
CENTRAL VALLEYS/CENTRAL HIGHLANDS

CITY           SKY/WX    TMP DP  RH WIND       PRES   REMARKS
ALBUQUERQUE    CLOUDY    69  55  60 N5        30.36S
6HR MIN TEMP:  69; 6HR MAX TEMP:  78;

DOUBLE EAGLE   CLEAR     63  55  77 N13       30.39F
CLINES CORNERS PTCLDY    57  51  80 E9        30.47F
6HR MIN TEMP:  57; 6HR MAX TEMP:  62;

BELEN          PTSUNNY   69  56  63 W6        30.36R
6HR MIN TEMP:  68; 6HR MAX TEMP:  72;

SOCORRO        NOT AVBL

$$
NMZ524>526-539-540-281300-
SOUTHCENTRAL MOUNTAINS

CITY           SKY/WX    TMP DP  RH WIND       PRES   REMARKS
RUIDOSO        NOT AVBL

$$
NMZ527>531-281300-
NORTHEAST HIGHLANDS/NORTHEAST PLAINS

CITY           SKY/WX    TMP DP  RH WIND       PRES   REMARKS
LAS VEGAS      MOCLDY    54  52  93 E5        30.49R
6HR MIN TEMP:  54; 6HR MAX TEMP:  59;

RATON          NOT AVBL
CLAYTON        CLOUDY    61  58  90 SE8       30.40R
6HR MIN TEMP:  59; 6HR MAX TEMP:  67; 6HR PCP:  1.68;


$$
NMZ532>537-281300-
EASTCENTRAL PLAINS

CITY           SKY/WX    TMP DP  RH WIND       PRES   REMARKS
TUCUMCARI      CLOUDY    67  57  70 NE15      30.34R
6HR MIN TEMP:  67; 6HR MAX TEMP:  77;

CANNON AFB     MOCLDY    65  57  74 NE18      30.34R
6HR MIN TEMP:  65; 6HR MAX TEMP:  76;

CLOVIS AIRPORT NOT AVBL

$$
NMZ028-029-538-281300-
SOUTHEAST PLAINS

CITY           SKY/WX    TMP DP  RH WIND       PRES   REMARKS
ROSWELL        MOCLDY    76  60  57 NW9       30.25R
6HR MIN TEMP:  76; 6HR MAX TEMP:  84;

ARTESIA        MOCLDY    77  57  50 NW17G23   30.26R
CARLSBAD       PTCLDY    78  56  46 N6        30.20R
6HR MIN TEMP:  77; 6HR MAX TEMP:  89;

HOBBS          CLEAR     73  55  53 CALM      30.23


$$



USA.gov is the U.S. government's official web portal to all federal, state and local government web resources and services.